Overview Statistics Trail Chart Weather Telemetry Raw packets
 

This is the latest recevied weather packets stored in our database for station/object N8TWM-13. If no packets are shown the sender has not sent any weather packets the latest 10 day(s).

<< 100 101 102 103 104 105 106 >>
Time Temp. Humidity Pressure Rain* Wind** Luminosity Snow
1787855906 26.67° C 65% 1015.6 hPa 0 mm - 682 W/m² -
1787855601 26.67° C 65% 1015.7 hPa 0 mm - 104 W/m² -
1787855296 27.78° C 64% 1015.7 hPa 0 mm - 682 W/m² -
1787854992 27.22° C 65% 1015.6 hPa 0 mm - 691 W/m² -
1787854687 26.67° C 68% 1015.6 hPa 0 mm - 664 W/m² -
1787854387 25.56° C 71% 1015.7 hPa 0 mm - 305 W/m² -
1787854081 26.11° C 68% 1015.7 hPa 0 mm - 149 W/m² -
1787853781 26.67° C 67% 1015.6 hPa 0 mm - 146 W/m² -
1787853480 27.22° C 64% 1015.6 hPa 0 mm - 183 W/m² -
1787853174 27.22° C 67% 1015.8 hPa 0 mm - 730 W/m² -
1787852869 26.67° C 65% 1015.6 hPa 0 mm - 221 W/m² -
1787852568 26.67° C 67% 1015.8 hPa 0 mm - 167 W/m² -
1787852268 26.67° C 65% 1015.8 hPa 0 mm - 139 W/m² -
1787851962 26.67° C 68% 1016 hPa 0 mm - 142 W/m² -
1787851662 26.67° C 66% 1015.5 hPa 0 mm - 140 W/m² -
1787851361 27.22° C 69% 1015.5 hPa 0 mm - 178 W/m² -
1787851057 27.22° C 65% 1015.4 hPa 0 mm - 168 W/m² -
1787850752 26.67° C 69% 1015.6 hPa 0 mm - 167 W/m² -
1787850448 26.67° C 69% 1015.7 hPa 0 mm - 549 W/m² -
1787850143 26.67° C 70% 1015.4 hPa 0 mm - 521 W/m² -
1787849843 26.11° C 73% 1015.5 hPa 0 mm - 671 W/m² -
1787849538 26.11° C 73% 1015.6 hPa 0 mm - 469 W/m² -
1787849237 25.56° C 75% 1015.8 hPa 0 mm - 682 W/m² -
1787848936 26.67° C 72% 1015.7 hPa 0 mm - 286 W/m² -
1787848631 27.22° C 69% 1015.8 hPa 0 mm - 420 W/m² -

* Rain latest hour (hover to see other rain measurements)
** Current wind speed in m/s (hover to see current wind gust speed)